Weather History for Anniston, AL

Change the Weather History Date:

Thursday, February 13, 2014

  Actual Average Record
Temperature  
Mean Temperature 40 °F 47 °F  
Max Temperature 50 °F 58 °F 84 °F (1962)
Min Temperature 30 °F 36 °F 9 °F (1905)
Degree Days  
Heating Degree Days 25    
Month to date heating degree days 285  
Since 1 July heating degree days 2253  
Moisture  
Dew Point 28 °F    
Average Humidity 62    
Maximum Humidity 92    
Minimum Humidity 31    
Precipitation  
Precipitation T in 0.19 in 1.41 in (2000)
Month to date precipitation 2.80 2.29  
Year to date precipitation 5.85 6.81  
Sea Level Pressure  
Sea Level Pressure 29.90 in    
Wind  
Wind Speed 6 mph (WSW)    
Max Wind Speed 17 mph    
Max Gust Speed 26 mph    
T = Trace of Precipitation, MM = Missing Value Source: NWS Daily Summary

Daily Weather History Graph

Daily Weather History Graph

Search for Another Location

Airport:

Trip Planner

Search our weather history database for the weather conditions in past years. The results will help you decide how hot, cold, wet, or windy it might be!

Date:

Astronomy

Feb. 13, 2014 Rise Set
Actual Time 6:29 AM CST 5:26 PM CST
Civil Twilight 6:04 AM CST 5:51 PM CST
Nautical Twilight 5:34 AM CST 6:20 PM CST
Astronomical Twilight 5:05 AM CST 6:49 PM CST
Moon 4:33 PM CST (2/13) 5:21 AM CST (2/13)
Length of Visible Light 11h 47m
Length of Day
10h 56m
Waxing Gibbous, 99% of the Moon is Illuminated
Feb 13
Waxing Gibbous
Feb 14
Full
Feb 22
Last Quarter
Mar 1
New
Mar 8
First Quarter

Hourly Weather History & Observations

Time (CST) Temp. Windchill Dew Point Humidity Pressure Visibility Wind Dir Wind Speed Gust Speed Precip Events Conditions
12:22 AM 33.1 °F - 30.0 °F 89% 29.83 in - Calm Calm - N/A   Overcast
12:53 AM 33.1 °F 30.0 °F 30.0 °F 89% 29.88 in - WSW 3.5 mph - N/A   Overcast
1:14 AM 33.1 °F 30.0 °F 30.0 °F 89% 29.84 in - West 3.5 mph - N/A   Overcast
1:53 AM 33.1 °F 28.7 °F 30.0 °F 89% 29.87 in - West 4.6 mph - N/A   Overcast
2:53 AM 33.1 °F 26.9 °F 30.9 °F 92% 29.86 in - WSW 6.9 mph - N/A   Overcast
3:53 AM 33.1 °F 26.9 °F 30.9 °F 92% 29.86 in - WSW 6.9 mph - 0.00 in Snow Light Snow
4:07 AM 33.1 °F 27.7 °F 30.9 °F 92% 29.82 in - SW 5.8 mph - 0.00 in   Overcast
4:53 AM 33.1 °F 26.1 °F 30.9 °F 92% 29.86 in - SW 8.1 mph - 0.00 in   Overcast
5:32 AM 33.1 °F 26.1 °F 30.9 °F 92% 29.85 in - SW 8.1 mph - 0.00 in   Overcast
5:53 AM 33.1 °F 26.1 °F 30.9 °F 92% 29.90 in - SW 8.1 mph - 0.00 in   Overcast
6:10 AM 34.0 °F 28.0 °F 32.0 °F 92% 29.87 in - SW 6.9 mph - N/A   Overcast
6:32 AM 35.1 °F - 30.9 °F 85% 29.87 in - North - - N/A   Overcast
6:53 AM 35.1 °F 27.9 °F 30.9 °F 85% 29.91 in - West 9.2 mph - N/A   Overcast
7:53 AM 34.0 °F 28.0 °F 30.9 °F 89% 29.92 in - SW 6.9 mph - N/A   Mostly Cloudy
8:12 AM 35.1 °F 29.3 °F 32.0 °F 89% 29.89 in - SW 6.9 mph - N/A   Overcast
8:53 AM 37.0 °F 29.8 °F 32.0 °F 82% 29.94 in - WSW 10.4 mph - N/A   Partly Cloudy
9:53 AM 39.0 °F 33.4 °F 28.0 °F 65% 29.95 in - West 8.1 mph - N/A   Clear
10:53 AM 43.0 °F 37.2 °F 24.1 °F 47% 29.94 in - WNW 10.4 mph 17.3 mph N/A   Clear
11:53 AM 46.0 °F 39.9 °F 18.0 °F 33% 29.93 in - NW 13.8 mph 19.6 mph N/A   Clear
12:53 PM 46.9 °F - 18.0 °F 32% 29.91 in - NNW 11.5 mph 20.7 mph N/A   Clear
1:53 PM 50.0 °F - 21.9 °F 33% 29.89 in - Variable 6.9 mph - N/A   Clear
2:53 PM 50.0 °F - 23.0 °F 35% 29.90 in - Variable 4.6 mph - N/A   Clear
3:53 PM 50.0 °F - 23.0 °F 35% 29.91 in - NW 8.1 mph - N/A   Clear
4:53 PM 46.9 °F - 21.0 °F 36% 29.92 in - West 6.9 mph - N/A   Clear
5:53 PM 39.0 °F - 28.0 °F 65% 29.93 in - Calm Calm - N/A   Clear
6:53 PM 35.1 °F 32.2 °F 28.9 °F 78% 29.93 in - SW 3.5 mph - N/A   Clear
7:53 PM 33.1 °F - 28.9 °F 85% 29.94 in - Calm Calm - N/A   Clear
8:53 PM 32.0 °F - 28.9 °F 88% 29.96 in - Calm Calm - N/A   Clear
9:53 PM 30.9 °F - 28.0 °F 89% 29.96 in - Calm Calm - N/A   Clear
10:53 PM 30.0 °F - 27.0 °F 88% 29.95 in - Calm Calm - N/A   Clear
11:53 PM 30.0 °F - 27.0 °F 88% 29.95 in - Calm Calm - N/A   Clear